Torna al catalogo

SL-12 DEB

LostHEO
NORAD 35310·DEBRIS·🇷🇺 Russia

Lanciato Apr 4, 1991 da Baikonur Cosmodrome

Loading…

Prossimi Passaggi (prossime 24 ore)

TLE

ObsoletoSource: Space-Track

Epoca: Jan 7, 2012, 07:12 UTC

1 35310U 91025AK  12007.30020772  .00000728  00000-0  57354-2 0  9993
2 35310 065.3940 126.5722 5525479 333.7595 352.5470 04.38191180 44535

Traccia SL-12 DEB in tempo reale con AllMySat

Download on the App Store